NK0V Weather Reports


Display with metric or nautical units.
time (UTC)temp
F
wind
direction
speed
MPH
gust
MPH
rain 1hr
in
rain 24hr
in
rain mn
in
humidity
%
barometer
mb
20260503203557 70 232 7.0 15.0 0.00 0.00 0.00 28 1008.6
20260503203057 70 296 8.0 16.0 0.00 0.00 0.00 27 1008.7
20260503202556 70 275 8.0 20.0 0.00 0.00 0.00 27 1008.8
20260503202059 70 298 6.0 20.0 0.00 0.00 0.00 27 1008.9
20260503201557 70 283 9.0 20.0 0.00 0.00 0.00 28 1009.0
20260503201056 71 263 9.0 14.0 0.00 0.00 0.00 27 1009.0
20260503200556 71 291 7.0 15.0 0.00 0.00 0.00 27 1009.1
20260503200111 71 246 6.0 16.0 0.00 0.00 0.00 28 1009.1
20260503195555 71 276 6.0 16.0 0.00 0.00 0.00 28 1009.1
20260503195140 71 259 6.0 15.0 0.00 0.00 0.00 28 1009.1
20260503194612 70 286 7.0 15.0 0.00 0.00 0.00 31 1009.2
20260503194057 70 276 6.0 18.0 0.00 0.00 0.00 29 1009.3
20260503193600 70 291 6.0 18.0 0.00 0.00 0.00 30 1009.4
20260503193106 70 325 8.0 18.0 0.00 0.00 0.00 30 1009.4
20260503192559 70 313 10.0 17.0 0.00 0.00 0.00 32 1009.5
20260503192057 70 280 9.0 15.0 0.00 0.00 0.00 32 1009.5
20260503191609 70 273 8.0 15.0 0.00 0.00 0.00 30 1009.5
20260503191059 70 316 5.0 15.0 0.00 0.00 0.00 29 1009.6
20260503190557 70 296 8.0 18.0 0.00 0.00 0.00 31 1009.6
20260503190109 70 296 6.0 18.0 0.00 0.00 0.00 32 1009.7
20260503185556 70 318 8.0 16.0 0.00 0.00 0.00 30 1009.7
20260503185059 70 322 3.0 15.0 0.00 0.00 0.00 32 1009.8
20260503184633 70 298 7.0 15.0 0.00 0.00 0.00 31 1009.9
20260503184056 69 337 6.0 14.0 0.00 0.00 0.00 31 1010.0
20260503183556 69 279 8.0 17.0 0.00 0.00 0.00 32 1010.1
20260503183102 69 321 6.0 17.0 0.00 0.00 0.00 31 1010.2
20260503182602 69 288 8.0 17.0 0.00 0.00 0.00 32 1010.3
20260503182101 69 252 8.0 16.0 0.00 0.00 0.00 34 1010.2
20260503181616 69 344 10.0 20.0 0.00 0.00 0.00 31 1010.4
20260503181057 69 298 9.0 20.0 0.00 0.00 0.00 32 1010.4
20260503180603 69 306 6.0 20.0 0.00 0.00 0.00 34 1010.4
20260503180118 68 276 9.0 18.0 0.00 0.00 0.00 32 1010.4
20260503175556 68 351 7.0 16.0 0.00 0.00 0.00 32 1010.6
20260503175059 68 325 7.0 19.0 0.00 0.00 0.00 33 1010.6
20260503174604 68 323 8.0 19.0 0.00 0.00 0.00 33 1010.7
20260503174056 68 265 6.0 19.0 0.00 0.00 0.00 34 1010.8
20260503173559 68 296 9.0 19.0 0.00 0.00 0.00 34 1010.7
20260503173108 68 286 7.0 15.0 0.00 0.00 0.00 36 1010.8
20260503172559 68 328 6.0 17.0 0.00 0.00 0.00 33 1010.9
20260503172058 68 348 8.0 17.0 0.00 0.00 0.00 36 1010.9
20260503171557 67 282 6.0 16.0 0.00 0.00 0.00 36 1011.0
20260503171059 67 336 8.0 17.0 0.00 0.00 0.00 36 1011.0
20260503170600 67 320 7.0 17.0 0.00 0.00 0.00 38 1011.1
20260503150559 62 5 7.0 15.0 0.00 0.00 0.00 45 1011.3
20260503150109 61 335 7.0 15.0 0.00 0.00 0.00 45 1011.3
20260503070104 53 270 3.0 7.0 0.00 0.00 0.00 58 1007.8
20260503055058 55 259 3.0 6.0 0.00 0.00 0.00 50 1008.0
20260503054558 55 271 2.0 4.0 0.00 0.00 0.00 50 1008.0
20260503054058 55 248 2.0 4.0 0.00 0.00 0.00 49 1008.0
20260503053558 55 248 2.0 4.0 0.00 0.00 0.00 48 1007.9
20260503053058 55 242 2.0 4.0 0.00 0.00 0.00 48 1008.0
20260503052558 55 240 2.0 8.0 0.00 0.00 0.00 48 1008.0
20260503052100 55 238 3.0 8.0 0.00 0.00 0.00 47 1008.0
20260503051559 55 229 3.0 7.0 0.00 0.00 0.00 47 1008.1
20260503051057 55 313 1.0 9.0 0.00 0.00 0.00 47 1008.2
20260503050559 55 287 3.0 10.0 0.00 0.00 0.00 46 1008.2
20260503050058 55 240 4.0 11.0 0.00 0.00 0.00 46 1008.1
20260503045600 55 266 5.0 11.0 0.00 0.00 0.00 45 1008.1
20260503045059 55 223 7.0 11.0 0.00 0.00 0.00 45 1008.0
20260503044608 55 222 4.0 11.0 0.00 0.00 0.00 45 1008.0
20260503044056 55 210 5.0 11.0 0.00 0.00 0.00 45 1007.9
20260503043558 55 216 6.0 13.0 0.00 0.00 0.00 45 1007.9
20260503043059 55 205 5.0 13.0 0.00 0.00 0.00 44 1007.9
20260503042555 55 221 5.0 10.0 0.00 0.00 0.00 44 1008.0
20260503042059 55 209 5.0 11.0 0.00 0.00 0.00 44 1007.9
20260503041558 55 223 5.0 11.0 0.00 0.00 0.00 43 1007.9
20260503041059 55 213 5.0 11.0 0.00 0.00 0.00 43 1007.8
20260503040559 55 229 4.0 11.0 0.00 0.00 0.00 43 1008.0
20260503035556 56 215 3.0 11.0 0.00 0.00 0.00 42 1008.0
20260503035101 56 232 5.0 11.0 0.00 0.00 0.00 41 1008.1
20260503034602 56 209 5.0 10.0 0.00 0.00 0.00 40 1008.1
20260503034055 57 205 4.0 11.0 0.00 0.00 0.00 40 1008.2
20260503033601 57 234 4.0 12.0 0.00 0.00 0.00 40 1008.2
20260503033058 57 203 6.0 12.0 0.00 0.00 0.00 39 1008.2
20260503032555 57 208 5.0 14.0 0.00 0.00 0.00 39 1008.2
20260503032055 57 217 5.0 14.0 0.00 0.00 0.00 39 1008.2
20260503031556 57 209 7.0 14.0 0.00 0.00 0.00 38 1008.2
20260503031055 57 202 7.0 14.0 0.00 0.00 0.00 38 1008.2
20260503030559 58 194 6.0 14.0 0.00 0.00 0.00 38 1008.1
20260503030126 58 210 7.0 15.0 0.00 0.00 0.00 38 1008.3
20260503025558 58 216 6.0 15.0 0.00 0.00 0.00 38 1008.3
20260503025102 58 199 6.0 13.0 0.00 0.00 0.00 37 1008.4
20260503024604 59 205 5.0 10.0 0.00 0.00 0.00 36 1008.5
20260503024056 59 221 4.0 10.0 0.00 0.00 0.00 37 1008.4
20260503023600 59 175 4.0 10.0 0.00 0.00 0.00 36 1008.5
20260503023056 59 220 4.0 10.0 0.00 0.00 0.00 35 1008.6
20260503022556 60 219 4.0 9.0 0.00 0.00 0.00 35 1008.6
20260503022056 60 188 5.0 9.0 0.00 0.00 0.00 35 1008.7
20260503021606 60 198 3.0 12.0 0.00 0.00 0.00 34 1008.7
20260503021055 60 174 5.0 12.0 0.00 0.00 0.00 34 1008.7
20260503020559 61 188 4.0 10.0 0.00 0.00 0.00 33 1008.7
20260503020058 61 200 4.0 10.0 0.00 0.00 0.00 33 1008.7
20260503015558 61 196 4.0 9.0 0.00 0.00 0.00 32 1008.8
20260503015059 62 188 4.0 11.0 0.00 0.00 0.00 32 1008.8
20260503014605 62 204 3.0 11.0 0.00 0.00 0.00 32 1008.8
20260503014058 62 211 5.0 9.0 0.00 0.00 0.00 31 1008.8
20260503013558 63 174 2.0 9.0 0.00 0.00 0.00 31 1008.8
20260503013058 63 178 4.0 9.0 0.00 0.00 0.00 30 1008.9
20260503012559 63 180 3.0 11.0 0.00 0.00 0.00 30 1008.9
20260503012056 63 186 3.0 11.0 0.00 0.00 0.00 29 1009.0
20260503011603 64 212 4.0 11.0 0.00 0.00 0.00 29 1009.0
20260503011057 64 221 5.0 12.0 0.00 0.00 0.00 29 1009.1
20260503010559 64 205 6.0 12.0 0.00 0.00 0.00 28 1009.2
20260503010109 64 227 4.0 12.0 0.00 0.00 0.00 28 1009.3
20260503005559 64 196 5.0 12.0 0.00 0.00 0.00 28 1009.4
20260503005059 65 201 6.0 12.0 0.00 0.00 0.00 27 1009.5
20260503004559 65 201 4.0 12.0 0.00 0.00 0.00 27 1009.6
20260503004059 65 231 5.0 12.0 0.00 0.00 0.00 27 1009.6
20260503003559 65 221 6.0 15.0 0.00 0.00 0.00 27 1009.6
20260503003113 65 237 4.0 16.0 0.00 0.00 0.00 27 1009.8
20260503002558 65 221 10.0 18.0 0.00 0.00 0.00 26 1009.8
20260503002058 65 253 8.0 19.0 0.00 0.00 0.00 25 1010.0
20260503001619 65 219 10.0 19.0 0.00 0.00 0.00 25 1010.0
20260503001103 65 217 9.0 22.0 0.00 0.00 0.00 26 1010.1
20260503000555 66 235 10.0 22.0 0.00 0.00 0.00 26 1010.3
20260503000121 66 219 8.0 20.0 0.00 0.00 0.00 26 1010.5
20260502235556 66 240 10.0 18.0 0.00 0.00 0.00 27 1010.5
20260502235059 66 244 8.0 19.0 0.00 0.00 0.00 27 1010.6
20260502234622 66 229 9.0 22.0 0.00 0.00 0.00 27 1010.8
20260502234102 66 217 9.0 22.0 0.00 0.00 0.00 26 1010.8
20260502233559 66 232 11.0 21.0 0.00 0.00 0.00 25 1010.9
20260502233104 66 251 10.0 22.0 0.00 0.00 0.00 27 1010.9
20260502232558 66 220 11.0 22.0 0.00 0.00 0.00 28 1010.9
20260502232058 66 257 13.0 22.0 0.00 0.00 0.00 28 1010.9
20260502231609 66 236 9.0 20.0 0.00 0.00 0.00 28 1011.0
20260502231056 66 246 8.0 21.0 0.00 0.00 0.00 29 1011.1
20260502230559 66 228 12.0 21.0 0.00 0.00 0.00 27 1011.1
20260502230058 66 225 11.0 20.0 0.00 0.00 0.00 28 1011.3
20260502225558 66 230 8.0 24.0 0.00 0.00 0.00 27 1011.3
20260502225056 66 223 10.0 24.0 0.00 0.00 0.00 28 1011.3
20260502224559 66 196 12.0 24.0 0.00 0.00 0.00 27 1011.4
20260502224056 66 218 7.0 25.0 0.00 0.00 0.00 29 1011.5
20260502223557 66 231 10.0 25.0 0.00 0.00 0.00 28 1011.4
20260502223059 66 227 11.0 20.0 0.00 0.00 0.00 28 1011.5
20260502222559 67 218 10.0 22.0 0.00 0.00 0.00 28 1011.5
20260502222056 66 189 10.0 22.0 0.00 0.00 0.00 29 1011.5
20260502221556 66 183 10.0 27.0 0.00 0.00 0.00 29 1011.5
20260502221058 66 217 13.0 27.0 0.00 0.00 0.00 28 1011.6
20260502220559 66 213 10.0 21.0 0.00 0.00 0.00 29 1011.6
20260502220059 66 224 10.0 21.0 0.00 0.00 0.00 29 1011.6
20260502215555 66 190 11.0 22.0 0.00 0.00 0.00 30 1011.7
20260502215056 66 239 11.0 23.0 0.00 0.00 0.00 29 1011.8
20260502214601 66 213 11.0 23.0 0.00 0.00 0.00 29 1012.0
20260502214056 66 217 9.0 24.0 0.00 0.00 0.00 29 1011.9
20260502213556 66 216 11.0 24.0 0.00 0.00 0.00 29 1012.0
20260502213055 66 247 9.0 21.0 0.00 0.00 0.00 30 1012.3
20260502212556 65 236 11.0 21.0 0.00 0.00 0.00 28 1012.3
20260502212056 65 230 9.0 19.0 0.00 0.00 0.00 28 1012.4
20260502211556 65 212 8.0 21.0 0.00 0.00 0.00 31 1012.5
20260502211056 66 209 10.0 21.0 0.00 0.00 0.00 28 1012.8
20260502210555 66 219 11.0 20.0 0.00 0.00 0.00 27 1013.1
20260502210056 67 257 7.0 20.0 0.00 0.00 0.00 29 1013.2
20260502205555 67 231 9.0 24.0 0.00 0.00 0.00 29 1013.4
20260502205056 67 246 11.0 24.0 0.00 0.00 0.00 29 1013.6
20260502204610 66 234 8.0 19.0 0.00 0.00 0.00 31 1013.6
20260502204059 66 283 9.0 19.0 0.00 0.00 0.00 28 1013.7